[[{"header":{"parameterUnit":"m.s-1","parameterCategory":1,"la1":30.2991,"la2":30.254,"lo1":-89.0895,"lo2":-89.0444,"dy":0.0017,"dx":0.0017,"nx":28,"ny":28,"refTime":"2024-06-01T03:00:00:Z","depth":0,"parameterNumber":2,"parameterNumberName":"U-component_of_WINDS"},"data":[0,0,0,0,0,0,0,0,0,0,0,0,0,0,0,0,0,0,0,0,0,0,0,0,0,0,0,0,0,0,0,0,0,0,0,0,0,0,0,0,0,0,0,0,0,0,0,0,0,0,0,0,0,0,0,0,0,0,2.3447,2.345,0,2.371,2.3713,2.3716,2.385,2.385,2.385,2.385,2.4118,2.4125,2.4131,0,0,0,0,0,0,0,0,0,0,0,0,0,2.3061,2.3068,2.3447,2.345,2.3454,2.3709,2.3713,2.3717,2.385,2.385,2.385,2.385,2.4115,2.4124,2.4132,0,0,0,0,0,0,0,0,0,0,0,0,0,2.3267,2.307,2.3447,2.3551,2.3563,2.3709,2.3713,2.3717,2.385,2.385,2.385,2.385,2.4113,2.4123,2.4133,2.4194,0,0,2.4165,2.417,0,0,0,0,0,0,0,0,2.3255,2.3281,2.3532,2.3544,2.3558,2.3747,2.3675,2.3877,2.385,2.3741,2.385,2.385,2.3994,2.4014,2.4063,2.4207,2.4218,2.4166,2.4173,2.4177,2.418,0,0,0,0,0,0,0,2.324,2.327,2.3551,2.3536,2.3551,2.3585,2.3614,2.3714,2.3863,2.375,2.3761,2.379,2.4001,2.4053,2.4071,2.4222,2.4166,2.4175,2.4182,2.4186,2.4432,2.4432,0,0,0,0,0,0,2.3209,2.3257,2.3543,2.3559,2.3404,2.3592,2.3624,2.3686,2.3863,2.389,2.379,2.3795,2.4035,2.4058,2.408,2.4165,2.4177,2.4187,2.4193,2.4432,2.4432,2.4432,0,0,0,0,0,0,2.3201,2.3234,2.3532,2.3411,2.3452,2.3598,2.3666,2.3691,2.3743,2.3892,2.3919,2.3815,2.4036,2.4066,2.4166,2.4176,2.4192,2.4201,2.4431,2.4432,2.4432,2.4333,0,0,0,0,0,0,2.3189,2.323,2.3254,2.3411,2.3458,2.3612,2.3667,2.3696,2.3761,2.3771,2.3923,2.3949,2.4038,2.4149,2.4176,2.4191,2.4209,2.4431,2.4431,2.4432,2.4336,2.433,2.4325,0,0,0,0,0,2.3175,2.3215,2.3255,2.3288,2.3491,2.3613,2.364,2.3742,2.3761,2.3787,2.3884,2.3944,2.4171,2.4158,2.419,2.4208,2.4431,2.4431,2.4432,2.4339,2.4331,2.4325,0,0,0,0,0,0,2.3055,2.3237,2.3283,2.3376,2.3478,2.3635,2.3671,2.3731,2.3829,2.3834,2.3958,2.3991,2.408,2.4154,2.4137,2.4277,2.4307,2.4314,2.4225,2.422,2.4214,2.4194,2.4218,0,0,0,0,0,2.3039,2.3123,2.3278,2.3344,2.3393,2.3523,2.358,2.365,2.3761,2.3804,2.3908,2.4013,2.4108,2.4168,2.4264,2.4348,2.4384,2.4376,2.437,2.4365,2.4369,2.4421,2.442,2.4434,2.4434,2.4434,0,0,2.3007,2.3118,2.3162,2.3323,2.341,2.3494,2.3558,2.3644,2.3708,2.3817,2.3919,2.3998,2.4123,2.4216,2.4262,2.4281,2.4374,2.4366,2.436,2.4368,2.4421,2.442,2.4418,2.4434,2.4434,2.4434,0,0,2.2992,2.3084,2.315,2.3237,2.3369,2.3456,2.3471,2.3621,2.3678,2.3782,2.3866,2.3944,2.4105,2.4191,2.4256,2.4276,2.4336,2.4304,2.4275,2.4324,2.4322,2.4322,2.433,2.4331,2.4308,2.4308,2.4308,0,2.2936,2.3066,2.3176,2.3258,2.3326,2.3431,2.3499,2.3578,2.3734,2.3779,2.3798,2.4004,2.4096,2.4211,2.4216,2.4265,2.4287,2.4287,2.4314,2.4315,2.4316,2.4325,2.4327,2.4303,2.4304,2.4304,2.4305,0,2.299,2.3079,2.3117,2.3267,2.334,2.3413,2.3535,2.3596,2.3661,2.3745,2.385,2.3964,2.4086,2.4119,2.4182,2.4243,2.4251,2.429,2.4322,2.4308,2.4319,2.4323,2.4297,2.4298,2.43,2.4301,0,0,2.2905,2.3117,2.3128,2.3198,2.3353,2.3424,2.3504,2.3624,2.3674,2.3778,2.3849,2.3984,2.4022,2.4095,2.417,2.4213,2.4223,2.4248,2.4252,2.4239,2.4299,2.4268,2.427,2.4264,2.4265,2.4266,2.4289,0,2.2912,2.306,2.3163,2.3271,2.3355,2.3457,2.3527,2.3629,2.3711,2.3795,2.3885,2.3979,2.4022,2.4067,2.4114,2.4211,2.4236,2.4211,2.4331,2.4334,2.4296,2.4276,2.4243,2.4259,2.4293,2.4294,2.4295,0,2.2939,2.3042,2.3158,2.3306,2.3346,2.3406,2.3525,2.3604,2.3723,2.378,2.3863,2.394,2.4029,2.4054,2.4179,2.416,2.4215,2.427,2.4274,2.4288,2.4313,2.429,2.4267,2.4269,2.4302,2.4302,2.4301,0,2.2864,2.3033,2.3125,2.3182,2.3356,2.3397,2.3471,2.3591,2.3657,2.3761,2.3806,2.3919,2.398,2.4066,2.4172,2.418,2.4287,2.432,2.4337,2.4334,2.4354,2.4351,2.4339,2.4389,2.4389,2.4389,2.4389,0,2.2861,2.2928,2.3094,2.3151,2.323,2.3348,2.3423,2.3507,2.3613,2.3687,2.3783,2.3851,2.3987,2.4072,2.4155,2.4247,2.4274,2.4323,2.4344,2.4314,2.4308,2.4352,2.4353,2.439,2.439,2.439,2.4389,0,2.279,2.2904,2.3012,2.3169,2.3211,2.3262,2.3397,2.3456,2.3545,2.3638,2.3667,2.3805,2.391,2.4025,2.4168,2.4225,2.4312,2.4342,2.4272,2.4284,2.4294,2.4292,2.431,2.4318,2.4361,2.4361,2.436,0,2.278,2.2834,2.2999,2.3056,2.3129,2.322,2.3289,2.3408,2.3476,2.3618,2.366,2.3773,2.3869,2.4033,2.4146,2.4257,2.4291,2.429,2.4308,2.4277,2.4292,2.4287,2.4294,2.4283,2.4282,2.4281,2.4281,0,2.2749,2.2804,2.2899,2.3015,2.3095,2.3192,2.3293,2.3334,2.3474,2.3545,2.3655,2.373,2.3878,2.3989,2.4115,2.4192,2.426,2.4275,2.4285,2.4254,2.4211,2.4235,2.4256,2.4273,2.4274,2.4275,2.4275,2.4275,2.2708,2.2763,2.2887,2.2991,2.3081,2.3173,2.3237,2.3334,2.3428,2.3558,2.3624,2.3733,2.3854,2.4029,2.4105,2.4193,2.4214,2.4228,2.4231,2.4233,2.4225,2.4197,2.4216,2.4217,2.4217,2.4217,2.4218,0,2.2682,2.2769,2.2864,2.3003,2.3085,2.3143,2.3259,2.3323,2.3419,2.3526,2.362,2.3747,2.3857,2.3979,2.4097,2.4143,2.4178,2.417,2.4168,2.4185,2.42,2.418,2.4141,2.4141,2.4141,2.4141,2.4141,2.4141,2.2678,2.2774,2.2843,2.2984,2.3071,2.3179,2.324,2.3327,2.3414,2.3552,2.3643,2.3723,2.3838,2.3965,2.4068,2.4102,2.414,2.4123,2.4166,2.4177,2.4183,2.4189,2.4171,2.4131,2.4131,2.4144,2.4144,2.4144]},{"header":{"parameterUnit":"m.s-1","parameterCategory":1,"la1":30.2991,"la2":30.254,"lo1":-89.0895,"lo2":-89.0444,"dy":0.0017,"dx":0.0017,"nx":28,"ny":28,"refTime":"2024-06-01T03:00:00:Z","depth":0,"parameterNumber":3,"parameterNumberName":"V-component_of_WINDS"},"data":[0,0,0,0,0,0,0,0,0,0,0,0,0,0,0,0,0,0,0,0,0,0,0,0,0,0,0,0,0,0,0,0,0,0,0,0,0,0,0,0,0,0,0,0,0,0,0,0,0,0,0,0,0,0,0,0,0,0,1.8093,1.8093,0,1.8118,1.8119,1.8119,1.8099,1.8098,1.8097,1.8096,1.8122,1.8123,1.8124,0,0,0,0,0,0,0,0,0,0,0,0,0,1.8025,1.8026,1.8093,1.8093,1.8093,1.8118,1.8119,1.8119,1.8099,1.8098,1.8097,1.8096,1.8121,1.8123,1.8125,0,0,0,0,0,0,0,0,0,0,0,0,0,1.8053,1.8026,1.8092,1.8086,1.8086,1.8118,1.8119,1.8119,1.8099,1.8098,1.8096,1.8095,1.812,1.8123,1.8125,1.8165,0,0,1.8132,1.8133,0,0,0,0,0,0,0,0,1.8051,1.8055,1.8087,1.8087,1.8086,1.8104,1.8104,1.8134,1.8099,1.8094,1.8096,1.8095,1.8117,1.8119,1.8127,1.8166,1.8167,1.8132,1.8133,1.8134,1.8135,0,0,0,0,0,0,0,1.8049,1.8054,1.8103,1.8087,1.8087,1.8082,1.8084,1.811,1.8112,1.8094,1.8093,1.8096,1.8116,1.8125,1.8127,1.8167,1.8132,1.8134,1.8135,1.8136,1.8241,1.8242,0,0,0,0,0,0,1.8048,1.8052,1.8102,1.8104,1.8065,1.8084,1.8087,1.81,1.8112,1.8113,1.8097,1.8095,1.8122,1.8125,1.8128,1.8176,1.8134,1.8136,1.8137,1.8239,1.8241,1.8242,0,0,0,0,0,0,1.8047,1.8053,1.8101,1.8078,1.8083,1.8087,1.8101,1.8101,1.8109,1.8114,1.8115,1.8106,1.8121,1.8125,1.8156,1.8177,1.8137,1.8139,1.8237,1.824,1.8242,1.8272,0,0,0,0,0,0,1.8045,1.8052,1.8068,1.8078,1.8085,1.8129,1.8102,1.8102,1.8113,1.8111,1.8122,1.8123,1.812,1.8153,1.8158,1.8179,1.8141,1.8236,1.8238,1.8241,1.8269,1.8275,1.828,0,0,0,0,0,1.8042,1.8075,1.8068,1.8075,1.8104,1.813,1.8134,1.813,1.8115,1.813,1.8134,1.8122,1.8173,1.8156,1.8162,1.8184,1.8234,1.8238,1.8241,1.8267,1.8274,1.828,0,0,0,0,0,0,1.8066,1.8076,1.8069,1.8106,1.8117,1.8126,1.8146,1.8138,1.8153,1.815,1.8145,1.8147,1.818,1.8185,1.8165,1.8223,1.8201,1.8206,1.8219,1.8226,1.8231,1.8229,1.8143,0,0,0,0,0,1.8075,1.8096,1.8103,1.8135,1.8141,1.8143,1.8154,1.815,1.8161,1.8166,1.8171,1.8183,1.8201,1.8214,1.8231,1.8269,1.8272,1.8287,1.8293,1.8297,1.8301,1.8322,1.833,1.8253,1.8253,1.8253,0,0,1.8095,1.8103,1.8116,1.814,1.8148,1.8169,1.8147,1.817,1.8185,1.8169,1.8199,1.8204,1.8216,1.8251,1.8267,1.8256,1.8323,1.8301,1.8305,1.8306,1.8326,1.8334,1.834,1.8255,1.8255,1.8255,0,0,1.8142,1.815,1.8177,1.8187,1.82,1.8201,1.8207,1.8218,1.822,1.825,1.8239,1.8257,1.8289,1.8298,1.8307,1.8358,1.8349,1.8364,1.8392,1.8413,1.8419,1.8424,1.8443,1.845,1.8368,1.8368,1.8368,0,1.8165,1.8196,1.8192,1.8217,1.8228,1.8215,1.8243,1.8251,1.8269,1.8277,1.8265,1.8305,1.8312,1.835,1.8362,1.837,1.8377,1.8363,1.8418,1.8424,1.8429,1.8446,1.8453,1.837,1.837,1.837,1.8369,0,1.8224,1.8246,1.8267,1.8286,1.8299,1.8325,1.8324,1.8338,1.8333,1.8335,1.8366,1.8374,1.8394,1.8402,1.8397,1.8439,1.8432,1.8419,1.8397,1.8438,1.8454,1.8461,1.8373,1.8372,1.8371,1.8371,0,0,1.8286,1.8303,1.831,1.8319,1.8333,1.835,1.8375,1.8394,1.8407,1.8419,1.8441,1.8468,1.8457,1.8467,1.8463,1.8481,1.8522,1.8466,1.8467,1.8477,1.8569,1.8579,1.8587,1.8515,1.8517,1.8518,1.8568,0,1.8334,1.8379,1.8376,1.8419,1.8439,1.8427,1.8449,1.846,1.8463,1.8481,1.8483,1.8503,1.8486,1.8492,1.851,1.8513,1.854,1.851,1.8535,1.8536,1.8533,1.8595,1.8606,1.8653,1.8574,1.8575,1.8576,0,1.8396,1.8412,1.8456,1.8468,1.8476,1.8496,1.8514,1.8531,1.8543,1.8544,1.8556,1.8549,1.8575,1.8552,1.8587,1.8566,1.8577,1.858,1.8582,1.8584,1.8559,1.86,1.8668,1.8675,1.8586,1.8585,1.8585,0,1.8437,1.847,1.8501,1.8508,1.8522,1.8537,1.8543,1.8554,1.8566,1.8581,1.8589,1.8607,1.8617,1.8631,1.8629,1.8612,1.8665,1.8642,1.8666,1.8666,1.8678,1.8677,1.8749,1.8684,1.8684,1.8684,1.8684,0,1.8491,1.8519,1.852,1.8539,1.857,1.8566,1.8597,1.8602,1.8612,1.8631,1.8622,1.864,1.8637,1.8655,1.8654,1.8684,1.8688,1.8689,1.8689,1.869,1.869,1.8697,1.8694,1.8686,1.8685,1.8685,1.8685,0,1.8543,1.8545,1.8578,1.8589,1.8592,1.8614,1.8623,1.8641,1.8643,1.8669,1.8674,1.8677,1.8699,1.8698,1.8722,1.8722,1.8758,1.8753,1.8754,1.8754,1.8778,1.8776,1.8857,1.8867,1.8795,1.8796,1.8797,0,1.8578,1.8599,1.8612,1.8625,1.8633,1.8653,1.8666,1.8663,1.8677,1.8692,1.8709,1.8729,1.8746,1.878,1.8784,1.8803,1.8799,1.8826,1.8801,1.8803,1.88,1.8799,1.8801,1.8831,1.8831,1.8832,1.8833,0,1.8639,1.8639,1.8657,1.8676,1.8692,1.8706,1.872,1.8731,1.873,1.8745,1.8767,1.878,1.8805,1.8826,1.8844,1.885,1.8841,1.884,1.8847,1.8849,1.8849,1.885,1.8768,1.8839,1.8838,1.8838,1.8837,1.8837,1.8683,1.8702,1.8714,1.8736,1.8746,1.8759,1.8777,1.8781,1.88,1.8821,1.8818,1.8843,1.8855,1.8878,1.8886,1.8905,1.8895,1.8905,1.8907,1.891,1.8913,1.8846,1.8908,1.8908,1.8908,1.8908,1.8907,0,1.8744,1.8752,1.8772,1.8791,1.8808,1.8799,1.8814,1.8828,1.8851,1.8863,1.8879,1.8905,1.8925,1.8931,1.8951,1.8965,1.8961,1.897,1.8969,1.8971,1.892,1.8913,1.8973,1.8973,1.8973,1.8972,1.8972,1.8972,1.8778,1.8809,1.8811,1.8847,1.8855,1.8879,1.8889,1.8901,1.8911,1.894,1.8957,1.8961,1.8971,1.8991,1.9009,1.901,1.9018,1.9028,1.9028,1.8981,1.8974,1.8968,1.8961,1.903,1.903,1.9077,1.9078,1.9078]}]]